Location: Lewisville
(33.0462°N, 96.9942°W)
Time: 09:56:08
(UTC-05:00)

ISS - Visible Passes

Search period start: 15 August 2020 00:00
Search period end: 25 August 2020 00:00
Orbit: 418 x 420 km, 51.6° (Epoch: 16 August)

Date Brightness Start Highest point End Pass type
(mag) Time Alt. Az. Time Alt. Az. Time Alt. Az.
22 Aug -2.0 06:04:11 10° S 06:07:06 28° SE 06:10:01 10° ENE visible
23 Aug -1.2 05:18:15 12° SSE 05:19:35 15° SE 05:21:35 10° E visible
24 Aug -3.8 06:05:54 17° SW 06:08:23 73° NW 06:11:45 10° NE visible
